Stations météo

Publicité
Dieppe, France (7040): Température de l'air & dewpoint: 15.10.2019 04:00:00 - 21.10.2019 04:00:00 (CEST)Dieppe, France (7040): Température de l'air 5cm: 15.10.2019 04:00:00 - 21.10.2019 04:00:00 (CEST)Dieppe, France (7040): Vitesse du vent & gusts: 15.10.2019 04:00:00 - 21.10.2019 04:00:00 (CEST)Dieppe, France (7040): Direction du vent: 15.10.2019 04:00:00 - 21.10.2019 04:00:00 (CEST)Dieppe, France (7040): reduced air pressure: 15.10.2019 04:00:00 - 21.10.2019 04:00:00 (CEST)Dieppe, France (7040): visibility: 15.10.2019 04:00:00 - 21.10.2019 04:00:00 (CEST)Dieppe, France (7040): Quantités de précipitations: 15.10.2019 04:00:00 - 21.10.2019 04:00:00 (CEST)
Date & Time tt [°C] td [°C] tt 5cm [°C] ff [km/h] ff [knt] fx [km/h] fx [knt] dd ppp [hPa] vv [km] rr [mm]
21.10.2019 04:00:00 11,6 10,0 10,5 22 12 54 29 NNE 1010,1 - 1,4
21.10.2019 03:00:00 11,6 9,7 10,6 22 12 54 29 NNE 1010,1 - 0,8
21.10.2019 02:00:00 11,6 10,2 10,3 24 13 54 29 NNE 1010,2 7 2,5
21.10.2019 01:00:00 11,7 10,1 10,2 27 15 51 27 NE 1010,6 - 2,2
21.10.2019 00:00:00 11,6 9,5 10,3 34 18 54 29 NE 1010,4 - 1,2
20.10.2019 23:00:00 12,3 10,5 10,4 25 14 53 29 NNE 1010,2 7 1,4
20.10.2019 22:00:00 12,5 10,2 10,5 27 15 55 30 NNE 1009,7 - 0,8
20.10.2019 21:00:00 12,7 9,9 11,4 30 16 55 30 NE 1009,5 - 0,2
20.10.2019 20:00:00 13,1 9,3 12,3 28 15 58 31 NNE 1009,2 15 0,0
20.10.2019 19:00:00 13,3 9,7 11,9 26 14 54 29 NNE 1008,9 - 0,0
20.10.2019 18:00:00 13,1 10,5 11,4 24 13 48 26 NNE 1008,4 - 2,8
20.10.2019 17:00:00 13,2 10,7 11,7 21 11 50 27 NE 1008,7 12 1,0
20.10.2019 16:00:00 13,8 10,2 13,9 19 11 41 22 NNE 1008,2 - 0,0
20.10.2019 15:00:00 13,8 10,6 13,6 21 11 40 21 NNE 1007,8 - 0,0
20.10.2019 14:00:00 13,3 10,5 13,3 26 14 39 21 NE 1008,0 - 0,0
20.10.2019 13:00:00 13,4 11,1 13,9 17 9 29 15 NE 1008,2 - 0,0
20.10.2019 12:00:00 13,3 10,5 13,7 16 9 27 14 NE 1008,2 - 0,0
20.10.2019 11:00:00 12,2 10,8 10,0 10 6 21 11 NE 1007,6 18 0,0
20.10.2019 10:00:00 9,9 9,0 9,6 6 3 9 5 S 1007,5 - 0,0
20.10.2019 09:00:00 9,7 8,9 9,4 6 4 11 6 SSE 1007,2 - 0,0
20.10.2019 08:00:00 9,7 8,8 9,4 9 5 14 8 SSE 1006,7 20 0,0
20.10.2019 07:00:00 9,6 8,7 9,4 9 5 12 7 S 1006,6 - 0,0
20.10.2019 06:00:00 9,7 8,8 9,3 8 5 15 8 SSE 1006,5 - 0,0
20.10.2019 05:00:00 9,7 8,8 9,4 9 5 15 8 SSE 1006,1 20 0,0
20.10.2019 04:00:00 9,9 8,7 9,4 9 5 16 9 SSE 1006,2 - 0,0
20.10.2019 03:00:00 9,8 8,6 9,4 10 6 16 9 SSE 1006,1 - 0,0
20.10.2019 02:00:00 10,1 8,7 9,8 10 5 16 9 S 1006,3 20 0,0
20.10.2019 01:00:00 10,3 8,7 10,0 9 5 17 9 SSE 1006,4 - 0,0
20.10.2019 00:00:00 10,5 8,9 10,1 9 5 16 8 S 1006,4 - 0,0
19.10.2019 23:00:00 11,0 9,1 10,6 10 5 15 8 S 1006,2 20 0,0
19.10.2019 22:00:00 11,7 9,4 11,1 9 5 15 8 S 1005,5 - 0,0
19.10.2019 21:00:00 12,2 9,6 11,3 8 5 13 7 SSE 1005,2 - 0,0
19.10.2019 20:00:00 13,0 9,1 12,2 8 5 14 8 S 1005,0 20 0,0
19.10.2019 19:00:00 13,2 8,7 12,0 7 4 25 14 SSW 1004,6 - 0,0
19.10.2019 18:00:00 14,9 9,3 15,0 10 5 26 14 SW 1004,1 - 0,0
19.10.2019 17:00:00 15,2 8,9 15,1 13 7 32 17 SW 1004,1 18 0,0
19.10.2019 16:00:00 14,9 9,5 14,8 12 7 29 16 SW 1003,9 - 0,0
19.10.2019 15:00:00 14,8 8,7 15,5 14 8 36 19 SW 1003,6 - 0,0
19.10.2019 14:00:00 14,5 9,1 15,2 20 11 37 20 SSW 1003,4 - 0,0
19.10.2019 13:00:00 13,7 9,1 14,4 16 8 35 19 SSW 1003,4 - 0,0
19.10.2019 12:00:00 13,3 9,4 13,7 19 10 38 20 SSW 1003,3 - 0,0
19.10.2019 11:00:00 12,5 9,0 11,9 18 10 39 21 SSW 1003,5 - 0,0
19.10.2019 10:00:00 11,7 8,9 10,8 17 9 40 21 S 1002,8 - 0,0
19.10.2019 09:00:00 11,1 9,0 10,6 17 9 38 20 S 1003,1 - 0,0
19.10.2019 08:00:00 11,3 8,9 11,0 17 9 37 20 S 1002,5 15 0,0
19.10.2019 07:00:00 11,5 8,7 11,1 16 9 35 19 S 1002,3 - 0,0
19.10.2019 06:00:00 11,7 8,7 11,4 19 10 37 20 S 1002,4 - 0,0
19.10.2019 05:00:00 12,1 8,8 11,8 20 11 43 23 S 1002,5 - 0,0
19.10.2019 04:00:00 12,4 9,9 12,1 18 10 36 20 S 1002,8 - 0,0
19.10.2019 03:00:00 12,5 10,0 12,0 19 10 37 20 S 1003,0 - 0,0
19.10.2019 02:00:00 12,3 9,1 11,9 18 10 42 23 S 1003,4 18 0,0
19.10.2019 01:00:00 12,4 8,9 12,0 19 10 39 21 S 1003,7 - 0,0
19.10.2019 00:00:00 12,7 8,6 12,3 18 10 40 22 S 1004,3 - 0,0
18.10.2019 23:00:00 13,0 8,3 12,5 22 12 42 23 S 1004,5 - 0,0
18.10.2019 22:00:00 13,2 7,6 12,7 21 11 42 23 S 1004,9 - 0,0
18.10.2019 21:00:00 13,4 7,4 12,8 20 11 39 21 S 1005,2 - 0,0
18.10.2019 20:00:00 13,9 7,0 13,3 20 11 44 24 S 1005,5 - 0,0
18.10.2019 19:00:00 14,1 7,2 13,6 18 10 40 22 S 1005,5 - 0,0
18.10.2019 18:00:00 14,8 7,3 14,5 20 11 40 22 SSW 1005,6 - 0,0
18.10.2019 17:00:00 15,6 6,6 15,3 19 10 55 30 SSW 1005,9 - 0,0
18.10.2019 16:00:00 15,6 7,1 15,6 25 14 54 29 SSW 1006,0 - 0,0
18.10.2019 15:00:00 15,1 7,1 14,9 29 16 57 31 SW 1006,0 - 0,0
18.10.2019 14:00:00 14,9 8,4 15,4 27 15 55 30 SW 1005,9 18 0,0
18.10.2019 13:00:00 13,9 8,7 13,2 29 16 56 30 SW 1006,2 - 0,0
18.10.2019 12:00:00 12,8 8,9 13,8 27 14 57 31 SSW 1005,7 - 0,0
18.10.2019 11:00:00 11,6 8,1 9,4 26 14 53 29 SSW 1005,1 - 0,0
18.10.2019 10:00:00 10,1 8,2 8,6 19 10 46 25 SW 1004,7 - 0,6
18.10.2019 09:00:00 10,2 8,0 9,1 26 14 51 28 SW 1003,8 - 0,4
18.10.2019 08:00:00 10,9 7,2 9,7 24 13 50 27 SSW 1001,9 - 0,0
18.10.2019 07:00:00 10,9 7,9 9,5 18 10 80 43 S 1001,7 - 2,6
18.10.2019 06:00:00 13,1 10,5 12,2 20 11 47 26 S 1001,9 - 0,0
18.10.2019 05:00:00 12,7 10,4 11,8 17 9 37 20 S 1002,8 - 0,0
18.10.2019 04:00:00 13,0 10,7 12,1 20 11 40 21 S 1004,0 - 0,0
18.10.2019 03:00:00 12,6 10,1 12,1 18 10 38 21 S 1004,7 - 0,0
18.10.2019 02:00:00 12,7 10,4 12,2 17 9 37 20 S 1005,4 12 0,0
18.10.2019 01:00:00 12,7 10,8 12,2 15 8 28 15 S 1006,1 - 0,0
18.10.2019 00:00:00 12,9 10,8 12,4 14 8 29 16 S 1006,5 - 0,0
17.10.2019 23:00:00 13,3 10,8 12,7 13 7 34 18 S 1006,7 12 0,0
17.10.2019 22:00:00 13,2 10,9 12,5 16 8 30 16 S 1006,7 - 0,0
17.10.2019 21:00:00 12,9 10,8 12,2 13 7 27 15 S 1007,2 - 0,0
17.10.2019 20:00:00 12,8 10,2 12,3 15 8 33 18 S 1007,5 - 0,0
17.10.2019 19:00:00 13,3 10,5 - 15 8 39 21 S 1007,3 - -
17.10.2019 18:00:00 14,4 10,8 12,4 22 12 39 21 SSW 1008,1 - 0,2
17.10.2019 17:00:00 16,2 10,3 16,2 12 6 32 17 SSW 1007,8 - 0,0
17.10.2019 16:00:00 16,4 10,0 17,1 16 8 39 21 SSW 1008,1 - 0,0
17.10.2019 15:00:00 16,2 10,3 17,2 17 9 36 20 S 1008,2 - 0,0
17.10.2019 14:00:00 15,2 10,0 15,5 16 9 33 18 S 1008,7 12 0,0
17.10.2019 13:00:00 13,6 9,8 13,4 15 8 35 19 S 1009,6 - 0,0
17.10.2019 12:00:00 12,5 9,7 12,0 16 8 34 19 S 1009,9 - 0,0
17.10.2019 11:00:00 12,0 9,2 13,1 18 10 30 16 S 1009,8 20 0,0
17.10.2019 10:00:00 10,9 9,0 10,1 13 7 25 14 S 1009,6 - 0,0
17.10.2019 09:00:00 10,1 8,9 9,6 13 7 27 14 S 1009,5 - 0,0
17.10.2019 08:00:00 10,4 9,2 9,7 14 8 25 14 S 1009,3 - 0,0
17.10.2019 07:00:00 11,1 9,7 10,4 15 8 27 14 S 1009,2 - 0,0
17.10.2019 06:00:00 11,6 9,8 10,9 14 8 29 16 S 1009,1 - 0,0
17.10.2019 05:00:00 11,7 10,3 11,0 15 8 26 14 S 1009,2 15 0,0
17.10.2019 04:00:00 11,7 10,3 11,0 13 7 23 12 S 1009,2 - 0,0
17.10.2019 03:00:00 12,0 10,4 11,1 12 7 21 11 S 1009,0 - 0,0
17.10.2019 02:00:00 12,4 11,3 11,7 9 5 21 11 SSW 1008,5 17 0,0
17.10.2019 01:00:00 12,6 11,5 12,1 11 6 26 14 WNW 1008,1 - 0,0
17.10.2019 00:00:00 12,7 12,1 12,0 16 9 28 15 NW 1007,5 - 0,0
16.10.2019 23:00:00 12,8 12,3 12,1 16 9 29 16 NW 1007,0 6 0,2
16.10.2019 22:00:00 12,6 12,1 12,1 22 12 36 20 NW 1006,2 - 0,8
16.10.2019 21:00:00 13,2 12,6 12,7 14 8 26 14 N 1005,2 - 3,0
16.10.2019 20:00:00 14,6 14,0 14,1 6 3 18 10 SSW 1004,7 0,5 4,5
16.10.2019 19:00:00 14,9 13,9 14,2 12 6 35 19 S 1004,8 - 1,4
16.10.2019 18:00:00 15,3 13,8 14,4 19 11 42 23 S 1004,5 - 0,4
16.10.2019 17:00:00 15,2 13,7 14,2 19 10 40 22 S 1004,8 10 1,0
16.10.2019 16:00:00 15,1 13,6 14,2 23 13 46 25 S 1004,8 - 1,6
16.10.2019 15:00:00 15,3 13,8 14,4 21 11 51 28 S 1005,1 - 0,4
16.10.2019 14:00:00 15,7 13,7 14,2 22 12 45 24 S 1005,1 16 1,0
16.10.2019 13:00:00 15,1 13,6 14,2 23 12 50 27 S 1005,4 - 1,0
16.10.2019 12:00:00 15,2 13,2 14,2 24 13 48 26 S 1005,2 - 0,0
16.10.2019 11:00:00 14,8 13,2 13,8 26 14 49 27 S 1005,1 - 0,8
16.10.2019 10:00:00 14,1 13,0 13,3 25 13 46 25 S 1004,9 - 1,8
16.10.2019 09:00:00 13,8 13,0 12,8 25 13 46 25 S 1004,5 - 3,0
16.10.2019 08:00:00 13,4 12,6 12,3 24 13 49 27 S 1004,4 9 2,8
16.10.2019 07:00:00 12,8 11,9 11,8 21 12 41 22 S 1004,7 - 0,9
16.10.2019 06:00:00 12,3 11,5 11,5 17 9 36 19 SSE 1005,1 - 4,8
16.10.2019 05:00:00 12,2 11,1 11,2 18 10 40 22 S 1006,4 16 0,8
16.10.2019 04:00:00 11,9 10,3 11,0 16 9 35 19 S 1007,4 - 0,2
16.10.2019 03:00:00 11,6 9,8 11,0 15 8 32 17 S 1008,3 - 0,0
16.10.2019 02:00:00 11,2 9,3 10,7 14 8 28 15 S 1008,9 18 0,0
16.10.2019 01:00:00 11,1 9,4 10,7 14 8 29 15 S 1009,2 - 0,0
16.10.2019 00:00:00 11,4 9,8 11,0 16 9 29 15 S 1009,3 - 0,0
15.10.2019 23:00:00 12,3 10,5 11,4 14 7 29 15 S 1009,3 18 0,0
15.10.2019 22:00:00 12,6 10,7 11,6 21 11 43 23 SW 1008,8 - 0,0
15.10.2019 21:00:00 12,7 10,9 11,7 14 8 27 14 SSW 1008,1 - 0,0
15.10.2019 20:00:00 12,7 10,9 11,7 16 9 34 18 SSW 1007,8 - 0,4
15.10.2019 19:00:00 14,2 9,4 13,4 14 8 26 14 SSW 1006,9 - 0,0
15.10.2019 18:00:00 15,0 8,9 14,8 11 6 24 13 SSW 1006,4 - 0,0
15.10.2019 17:00:00 15,2 9,1 15,0 11 6 33 18 SSW 1006,5 18 0,0
15.10.2019 16:00:00 15,8 9,9 16,1 13 7 26 14 SSW 1006,3 - 0,0
15.10.2019 15:00:00 15,5 10,3 15,1 13 7 28 15 SSW 1006,4 - 0,0
15.10.2019 14:00:00 14,6 10,2 15,5 10 5 29 15 SSW 1006,4 18 0,0
15.10.2019 13:00:00 14,8 9,6 15,6 14 8 30 16 SSW 1006,5 - 0,0
15.10.2019 12:00:00 14,1 9,5 15,1 15 8 32 18 SSW 1006,8 - 0,0
15.10.2019 11:00:00 13,3 10,1 13,1 15 8 32 18 SSW 1006,1 18 0,0
15.10.2019 10:00:00 12,9 10,1 12,7 14 8 33 18 SSW 1005,7 - 0,0
15.10.2019 09:00:00 13,0 10,7 12,7 17 9 31 17 SSW 1005,3 - 0,0
15.10.2019 08:00:00 13,3 11,9 12,7 11 6 23 12 S 1004,6 10 0,0
15.10.2019 07:00:00 13,5 11,5 13,1 13 7 26 14 S 1005,1 - 0,0
15.10.2019 06:00:00 13,4 11,5 12,7 11 6 27 14 S 1004,8 - 0,0
15.10.2019 05:00:00 13,1 11,3 12,7 11 6 24 13 S 1005,0 15 0,0
15.10.2019 04:00:00 13,4 11,8 12,9 10 6 23 12 S 1004,7 - 0,0

tt = Température de l'air
td = dewpoint
tt 5cm = Température de l'air 5cm
ff = Vitesse du vent
fx = gusts
dd = Direction du vent
ppp = reduced air pressure
vv = visibility
rr = Quantités de précipitations

stations d'obs. à proximité